#timestamp,LO_Frequency,Hit 
1501333235.0,286047001.7,P
1501333235.9,286047001.7,P
1501333255.8,286047001.9,P
1501333275.6,286047000.2,N
1501333295.5,286046999.7,N
1501333315.3,286047002.1,N
1501333335.1,286047000.4,N
1501333355.9,286047000.5,N
1501333375.7,286047000.0,N
1501333395.5,286046999.8,N
1501333415.4,286047000.7,N
1501333435.2,286046998.7,N
1501333455.1,286046998.4,N
1501333456.0,286046998.4,N
1501333475.8,286046999.5,N
1501333495.6,286046996.6,N
1501333515.5,286046998.8,N
1501333535.3,286047001.1,N
1501333555.1,286047001.1,N
1501333575.9,286047002.7,N
1501333595.7,286046999.7,N
1501333615.6,286047001.5,N
1501333635.4,286047004.3,N
1501333655.2,286047004.1,N
1501333675.1,286047005.9,P
1501333676.0,286047005.9,N
1501333695.8,286047005.0,N
1501333715.7,286047005.3,N
1501333735.5,286047005.7,N
1501333755.3,286047007.3,P
1501333775.2,286047000.7,N
1501333795.0,286046999.4,N
1501333795.9,286046999.4,N
1501333815.8,286046999.1,N
1501333835.6,286046995.3,N
1501333855.4,286046997.9,N
1501333875.3,286046995.3,N
1501333895.1,286046993.5,N
1501333915.8,286046994.4,N
1501333935.7,286046994.3,P
1501333955.5,286046995.9,N
1501333975.4,286046997.8,N
1501333995.2,286047012.0,P
1501334015.0,286047014.3,N
1501334015.9,286047014.3,N
1501334065.8,286046999.9,E
1501334075.7,286047000.6,N
1501334095.6,286047002.1,P
1501334115.4,286047003.8,P
1501334135.2,286047002.5,N
1501334155.1,286047001.9,N
1501334156.0,286047001.9,N
1501334175.8,286047001.9,N
1501334195.7,286047002.2,N
1501334215.5,286047002.4,N
1501334235.3,286047000.1,N
1501334255.2,286047000.0,N
1501334275.0,286046998.3,N
1501334275.9,286046998.3,N
1501334295.8,286046997.0,N
1501334315.6,286046997.2,N
1501334335.4,286046997.7,N
1501334355.3,286046997.5,N
1501334375.1,286046997.6,N
1501334395.8,286046996.7,N
1501334415.7,286046999.1,N
1501334435.5,286046996.5,N
1501334455.9,286046998.4,N
1501334475.7,286046997.2,N
1501334495.5,286046996.9,N
1501334515.4,286046996.7,N
1501334535.2,286046996.6,N
1501334555.0,286046997.1,N
1501334555.9,286046997.1,N
1501334575.8,286046997.8,N
1501334595.6,286046995.9,N
1501334615.5,286046994.7,N
1501334635.3,286046992.4,P
1501334655.1,286046993.6,N
1501334675.9,286046995.3,N
1501334695.7,286046995.1,N
1501334715.6,286046997.3,N
1501334735.4,286046999.1,N
1501334755.2,286046998.5,N
1501334775.1,286047000.0,N
1501334776.0,286047000.0,N
1501334795.8,286046999.7,N
1501334815.7,286047001.3,P
1501334835.5,286047007.3,P
1501334855.3,286047006.4,N
1501334875.2,286047006.2,N
1501334895.9,286047006.2,N
1501334915.7,286047006.5,N
1501334935.6,286047008.6,N
1501334955.4,286047010.6,P
1501334975.3,286047003.0,N
1501334995.1,286047001.6,N
1501334996.0,286047001.6,N
1501335015.8,286047000.9,N
1501335035.7,286046998.1,N
1501335055.5,286046996.5,N
1501335075.3,286046999.0,N
1501335095.2,286046999.5,N
1501335115.0,286046999.3,N
1501335115.9,286046999.3,N
1501335135.8,286046997.5,N
1501335155.6,286046997.5,N
1501335175.4,286046996.7,N
1501335195.3,286046998.2,N
1501335215.1,286046998.5,N
1501335235.8,286046998.1,N
1501335255.7,286047000.4,N
1501335275.5,286046999.9,N
1501335295.4,286046998.5,N
1501335315.2,286046996.9,N
1501335335.0,286046997.5,N
1501335335.9,286046997.5,N
1501335355.8,286046997.9,N
1501335375.6,286046995.6,N
1501335395.4,286046996.9,N
1501335415.3,286046999.6,N
1501335435.1,286046998.6,N
1501335455.9,286047001.2,N
1501335475.7,286046999.3,N
1501335495.5,286046998.6,N
1501335515.4,286047000.1,N
1501335535.2,286047000.9,N
1501335555.0,286047000.5,N
1501335555.9,286047000.5,N
1501335575.8,286047000.7,N
1501335595.6,286047000.4,N
1501335615.5,286047001.1,N
1501335635.3,286046998.5,N
1501335655.1,286046999.4,N
1501335675.9,286046997.0,N
1501335695.7,286046999.0,N
1501335715.5,286046999.0,N
1501335735.4,286046998.6,N
1501335755.2,286046999.9,N
1501335775.1,286047000.1,N
1501335776.0,286047000.1,N
1501335795.8,286047000.4,N
1501335815.6,286046998.6,N
1501335835.5,286046998.2,N
1501335855.3,286047001.1,N
1501335875.2,286046999.8,N
1501335895.9,286047000.9,N
1501335915.7,286047002.7,N
1501335935.6,286047000.8,N
1501335955.4,286046998.4,N
1501335975.2,28601501336015.1,286046997.2,P
1501336035.7,286046997.6,P
1501336055.6,286046997.7,P
1501336075.4,286046997.5,P
1501336095.2,286046999.0,P
1501336115.1,286046999.3,N
1501336116.0,286046999.3,N
1501336135.8,286046996.5,P
1501336155.7,286046998.6,N
1501336175.5,286047001.0,N
1501336195.3,286047000.9,N
1501336215.2,286047001.2,N
1501336235.0,286046999.2,N
1501336235.9,286046999.2,N
1501336255.8,286046996.6,N
1501336275.6,286046999.2,N
1501336295.4,286046999.5,N
1501336315.3,286046999.2,N
1501336335.1,286046998.1,N
1501336355.8,286047002.3,N
1501336375.7,286047000.1,N
1501336395.5,286047000.2,N
1501336415.4,286047000.3,N
1501336435.2,286047002.8,N
1501336455.0,286047000.6,N
1501336455.9,286047000.6,N
1501336475.8,286047002.8,N
1501336495.6,286046999.8,N
1501336515.4,286047000.0,N
1501336535.3,286046999.9,N
1501336555.1,286047001.2,N
1501336575.9,286047000.1,N
1501336595.7,286047000.4,N
1501336615.5,286047000.9,N
1501336635.4,286046998.9,N
1501336655.2,286046998.8,N
1501336675.1,286046998.9,N
1501336676.0,286046998.9,N
1501336695.8,286047001.1,N
1501336715.6,286047000.7,N
1501336735.5,286046998.8,N
1501336755.3,286046997.8,N
1501336775.1,286046995.0,P
1501336795.9,286046995.6,N
